Date,TemperatureHighF,TemperatureAvgF,TemperatureLowF,DewpointHighF,DewpointAvgF,DewpointLowF,HumidityHigh,HumidityAvg,HumidityLow,PressureMaxIn,PressureMinIn,WindSpeedMaxMPH,WindSpeedAvgMPH,GustSpeedMaxMPH,PrecipitationSumIn
2013-1-1,48.9,46.7,43.5,47.7,40.3,30.3,98,80,51,30.13,29.95,2,0,5,0.23
2013-1-2,47.5,42.6,38.1,47.0,41.6,37.2,99,96,89,30.22,29.94,1,0,2,0.32
2013-1-3,43.6,38.0,27.9,38.5,35.9,26.7,98,92,79,30.28,30.17,1,0,2,0.00
2013-1-4,49.3,35.9,23.9,32.6,26.9,22.7,97,73,42,30.34,30.21,3,0,6,0.00
2013-1-5,51.0,36.5,24.8,33.3,27.3,22.3,91,71,41,30.42,30.28,1,0,3,0.00
2013-1-6,50.2,41.1,32.7,39.4,36.3,31.2,95,84,63,30.28,30.08,1,0,2,0.01
2013-1-7,53.2,37.5,28.2,36.2,31.5,26.6,97,81,51,30.47,30.20,1,0,8,0.01
2013-1-8,56.3,39.4,26.8,41.7,34.6,25.6,98,85,56,30.49,30.40,1,0,2,0.00
2013-1-9,68.2,53.2,35.7,53.6,46.8,34.3,99,80,58,30.47,30.36,2,0,5,0.00
2013-1-10,63.6,50.8,42.3,49.2,44.1,36.7,98,79,55,30.55,30.43,1,0,4,0.00
2013-1-11,51.4,47.0,42.5,50.9,43.5,34.4,99,88,66,30.46,30.17,0,0,3,0.24
2013-1-12,67.8,56.4,49.7,64.5,55.5,49.4,100,97,85,30.18,30.11,1,0,2,0.01
2013-1-13,74.3,61.6,54.4,64.8,58.7,54.1,100,91,68,30.16,30.06,2,0,5,0.00
2013-1-14,67.9,62.2,56.0,63.6,60.1,54.9,98,93,83,30.17,30.08,2,0,5,0.00
2013-1-15,55.7,45.4,43.6,54.3,44.6,42.7,99,97,95,30.26,30.07,1,0,4,0.02
2013-1-16,49.4,45.8,43.3,49.4,45.6,43.0,100,99,99,30.10,29.99,1,0,4,0.19
2013-1-17,50.2,45.6,32.7,50.2,45.4,32.0,100,99,97,30.15,29.92,3,0,9,1.40
2013-1-18,44.2,34.8,26.9,35.2,31.1,25.7,98,87,56,30.56,30.15,2,0,6,0.46
2013-1-19,53.7,35.3,22.1,35.4,28.8,21.1,98,81,42,30.54,30.18,2,0,3,0.05
2013-1-20,63.0,47.0,31.4,38.9,34.8,29.9,95,65,38,30.18,30.00,4,1,8,0.00
2013-1-21,59.0,42.6,26.4,35.6,29.8,23.0,98,65,35,30.11,29.87,3,0,6,0.00
2013-1-22,41.1,32.1,21.0,23.1,11.0,4.0,65,42,25,30.32,29.97,3,1,8,0.00
2013-1-23,40.5,26.2,14.6,18.6,14.0,8.0,91,63,36,30.42,30.10,3,0,6,0.00
2013-1-24,35.1,29.1,18.8,25.8,17.1,10.0,86,62,43,30.56,29.99,4,1,7,0.00
2013-1-25,27.4,22.6,16.2,26.2,17.4,9.7,95,81,52,30.56,30.14,1,0,2,0.01
2013-1-26,34.5,29.5,24.1,32.5,28.1,22.6,97,94,91,30.43,30.12,1,0,2,0.06
2013-1-27,38.7,28.7,20.9,31.4,25.7,19.7,97,89,70,30.64,30.43,1,0,2,0.05
2013-1-28,51.5,40.7,27.5,48.4,36.6,25.6,95,86,70,30.54,30.25,2,0,8,0.02
2013-1-29,74.1,58.6,48.9,59.4,53.0,47.4,96,83,59,30.25,30.08,3,1,8,0.00
2013-1-30,71.7,66.6,58.1,65.5,62.8,56.1,97,88,78,30.08,29.37,5,2,11,0.01
2013-1-31,67.9,46.9,33.0,65.2,33.4,22.6,93,62,37,30.03,29.43,7,3,14,0.46
2013-2-1,41.1,33.8,22.1,29.6,17.1,7.8,78,52,31,30.42,29.90,6,2,13,0.00
2013-2-2,44.0,30.8,15.9,35.1,16.1,9.9,87,57,34,30.44,30.06,3,0,8,0.00
2013-2-3,48.5,40.3,32.6,36.4,31.1,25.2,95,71,47,30.06,29.87,4,1,12,0.00
2013-2-4,49.0,36.8,23.6,28.5,24.8,20.8,93,64,39,30.17,30.01,2,0,5,0.00
2013-2-5,60.2,44.5,34.3,37.7,33.7,27.6,90,67,41,30.03,29.90,3,0,5,0.00
2013-2-6,62.0,42.8,27.9,40.8,30.9,26.7,98,69,30,30.32,29.99,4,1,8,0.00
2013-2-7,49.1,41.3,34.1,42.2,37.4,32.6,97,86,71,30.36,30.03,1,0,4,0.45
2013-2-8,54.7,45.0,39.1,46.9,40.7,30.6,97,86,61,30.05,29.82,3,1,9,0.74
2013-2-9,52.8,38.2,26.5,30.7,25.5,21.9,94,64,31,30.39,30.04,3,1,5,0.00
2013-2-10,54.1,37.8,23.7,40.4,26.6,20.9,92,68,35,30.52,30.25,2,0,5,0.03
2013-2-11,62.7,54.8,42.5,60.4,53.1,39.6,99,94,87,30.25,29.93,2,1,7,0.04
2013-2-12,60.3,52.5,44.4,55.4,38.5,30.9,92,62,34,30.09,29.92,3,1,6,0.00
2013-2-13,46.7,46.1,45.2,42.8,41.5,40.4,91,84,79,29.97,29.87,0,0,0,0.01
2013-2-14,48.5,37.9,31.6,36.5,33.6,29.8,94,85,59,30.10,30.02,0,0,0,0.01
2013-2-15,62.2,42.1,26.6,43.0,33.2,25.6,99,76,37,30.12,29.95,2,0,6,0.00
2013-2-16,44.6,36.3,30.1,37.6,33.2,28.8,96,89,68,30.00,29.84,2,0,3,0.35
2013-2-17,36.2,28.6,20.0,29.0,18.0,12.5,95,67,38,30.32,29.93,5,1,16,0.05
2013-2-18,51.1,32.1,14.8,27.6,20.5,12.9,95,67,33,30.45,30.30,2,0,5,0.06
2013-2-19,53.2,42.8,29.9,50.6,38.9,26.8,97,86,65,30.30,29.87,4,1,8,0.06
2013-2-20,52.0,40.4,31.7,39.0,23.4,18.0,95,54,26,30.17,29.97,4,1,9,0.00
2013-2-21,54.6,38.7,22.7,27.8,22.8,19.1,91,56,31,30.30,30.13,3,0,6,0.00
2013-2-22,39.9,35.7,31.5,35.4,31.8,23.5,97,87,52,30.38,30.16,0,0,3,0.33
2013-2-23,43.1,39.7,35.8,42.8,39.2,35.0,99,98,97,30.16,29.83,1,0,3,0.64
2013-2-24,62.5,48.4,36.0,47.6,40.5,31.6,100,78,36,30.05,29.81,3,1,6,0.05
2013-2-25,42.6,36.2,30.6,31.3,26.6,23.8,86,69,51,30.25,30.06,1,0,5,0.00
2013-2-26,56.4,44.3,33.3,56.1,41.9,26.9,100,91,72,30.18,29.58,2,0,3,0.99
2013-2-27,60.2,49.4,40.3,48.2,41.7,37.0,98,77,48,29.79,29.63,4,1,8,0.00
2013-2-28,49.0,40.5,31.3,39.0,32.9,27.6,97,76,50,29.87,29.71,3,1,8,0.00
2013-3-1,47.6,37.8,25.6,33.5,29.4,24.0,97,74,50,29.93,29.85,3,0,5,0.00
2013-3-2,49.1,38.9,29.3,30.7,27.5,21.4,90,65,45,29.94,29.83,3,0,7,0.00
2013-3-3,47.0,35.7,27.5,25.8,22.2,18.0,75,59,41,30.00,29.85,3,1,7,0.00
2013-3-4,50.8,34.8,24.1,23.2,19.0,15.3,84,55,29,30.13,29.99,4,1,7,0.00
2013-3-5,50.4,40.7,27.4,43.9,35.7,23.5,97,84,47,30.11,29.60,2,0,2,0.54
2013-3-6,44.4,40.3,35.6,42.2,34.9,30.3,98,82,65,30.03,29.51,7,3,22,0.01
2013-3-7,49.2,40.6,30.1,33.6,31.0,27.1,91,70,53,30.25,30.03,4,1,13,0.00
2013-3-8,55.7,42.1,28.9,31.0,28.3,24.7,86,60,37,30.30,30.16,4,1,10,0.00
2013-3-9,63.9,45.3,31.8,35.4,30.8,26.7,86,60,32,30.36,30.25,2,0,5,0.00
2013-3-10,69.8,47.2,28.4,37.2,30.0,26.7,97,59,22,30.35,30.23,2,0,5,0.00
2013-3-11,70.5,53.6,35.2,53.6,44.5,29.8,97,73,52,30.27,29.96,3,1,6,0.00
2013-3-12,70.1,61.1,49.5,63.2,55.1,36.6,99,82,57,29.97,29.75,4,1,7,0.45
2013-3-13,56.2,49.0,38.0,36.7,29.5,21.0,72,48,35,30.14,29.94,6,2,15,0.00
2013-3-14,54.1,39.1,28.1,26.1,22.0,19.0,77,52,30,30.25,30.11,4,1,9,0.00
2013-3-15,61.8,48.0,28.8,37.5,33.0,23.4,83,59,37,30.19,29.92,4,1,7,0.00
2013-3-16,78.3,60.0,41.2,53.2,45.9,36.7,89,62,40,29.92,29.65,5,1,9,0.00
2013-3-17,62.5,49.8,39.7,53.2,45.1,37.4,96,84,71,30.21,29.83,2,0,6,0.00
2013-3-18,42.1,38.8,37.1,41.2,37.9,36.3,97,96,93,30.22,30.03,1,0,3,0.04
2013-3-19,67.4,51.1,39.8,49.2,36.3,20.7,99,66,23,30.03,29.83,6,1,9,0.01
2013-3-20,56.3,44.1,31.6,28.8,21.3,12.8,79,43,27,30.13,29.81,3,0,8,0.00
2013-3-21,44.5,38.1,30.4,32.2,22.3,12.8,83,54,33,29.99,29.75,4,1,9,0.00
2013-3-22,51.9,35.4,19.7,24.8,18.1,13.8,83,52,28,30.10,29.98,3,1,6,0.00
2013-3-23,56.2,42.1,28.8,33.8,28.7,22.9,86,63,35,30.08,29.93,2,0,3,0.00
2013-3-24,40.1,36.6,30.8,38.5,34.8,28.4,96,93,84,29.96,29.58,1,0,4,0.85
2013-3-25,47.9,39.5,34.4,38.8,32.0,26.0,98,78,47,29.82,29.56,6,1,15,0.01
2013-3-26,48.3,41.8,32.3,31.9,28.9,26.0,79,60,49,30.11,29.82,4,1,6,0.00
2013-3-27,52.7,41.6,32.0,29.4,27.0,23.9,82,58,36,30.23,30.11,4,1,10,0.00
2013-3-28,57.0,43.3,31.1,30.1,27.4,24.7,80,56,33,30.31,30.16,4,1,10,0.00
2013-3-29,60.7,43.8,26.8,32.5,29.0,24.4,94,61,32,30.35,30.19,3,1,11,0.00
2013-3-30,67.1,49.3,31.8,43.8,35.5,29.2,93,64,32,30.26,30.10,3,0,5,0.00
2013-3-31,68.0,55.7,47.5,57.9,51.2,43.2,98,85,67,30.12,29.81,4,1,10,0.51
2013-4-1,72.4,60.1,52.0,54.6,48.5,36.3,99,70,35,29.98,29.80,5,1,11,0.11
2013-4-2,60.8,47.9,32.7,36.4,30.4,25.9,92,54,27,30.17,29.99,4,1,10,0.00
2013-4-3,60.3,47.5,36.0,33.9,27.1,22.3,83,48,26,30.31,30.15,3,0,9,0.00
2013-4-4,49.9,41.9,37.6,40.5,33.4,25.3,97,73,50,30.39,29.95,1,0,3,0.84
2013-4-5,64.6,48.5,39.1,49.6,43.5,38.1,98,85,54,30.03,29.88,2,0,4,0.09
2013-4-6,66.4,51.4,37.2,40.0,35.4,28.2,97,59,32,30.30,30.02,2,0,14,0.00
2013-4-7,72.7,53.3,32.8,48.0,40.1,30.8,96,65,39,30.30,30.12,4,1,6,0.00
2013-4-8,79.8,64.3,47.8,59.3,53.2,46.5,98,70,45,30.18,30.05,4,1,9,0.00
2013-4-9,86.0,71.3,53.4,61.6,58.4,51.9,98,67,41,30.18,30.05,3,1,7,0.00
2013-4-10,88.6,74.5,60.9,64.6,61.2,57.6,91,66,41,30.09,29.93,4,1,8,0.00
2013-4-11,82.7,74.6,65.6,67.5,62.7,58.9,86,68,49,29.98,29.80,4,1,8,0.00
2013-4-12,81.8,71.9,65.4,71.4,65.0,48.2,98,80,52,29.82,29.60,4,1,9,0.67
2013-4-13,75.7,62.9,51.2,49.3,44.5,39.1,87,53,32,30.01,29.75,3,1,6,0.00
2013-4-14,81.3,62.5,42.9,54.9,46.9,41.6,98,64,28,30.12,30.01,2,0,4,0.00
2013-4-15,72.5,64.3,58.0,60.8,57.6,54.9,94,80,63,30.22,30.03,1,0,7,0.02
2013-4-16,78.9,63.9,56.1,63.2,58.8,55.3,99,85,55,30.32,30.20,2,0,3,0.00
2013-4-17,82.4,68.6,54.8,67.9,62.1,54.0,99,82,56,30.24,30.11,2,0,5,0.00
2013-4-18,80.2,69.2,58.6,64.6,61.4,56.9,97,78,55,30.20,30.05,2,0,6,0.00
2013-4-19,81.8,71.3,64.8,70.3,66.4,61.6,99,85,64,30.06,29.72,5,1,10,0.47
2013-4-20,65.2,55.3,43.7,64.9,44.0,34.8,99,69,38,30.28,29.81,3,1,6,0.07
2013-4-21,63.9,50.0,38.4,44.9,40.8,37.1,96,73,48,30.51,30.28,2,0,4,0.00
2013-4-22,61.1,48.1,36.3,46.4,40.6,33.9,93,77,53,30.51,30.29,2,1,6,0.02
2013-4-23,69.1,54.5,47.9,54.1,47.9,44.2,93,79,55,30.29,30.14,2,0,6,0.00
2013-4-24,76.4,59.7,43.8,59.3,52.0,42.7,99,79,51,30.17,29.97,4,1,12,0.00
2013-4-25,73.3,61.0,49.5,58.1,49.9,41.7,93,68,43,30.29,30.02,2,0,6,0.00
2013-4-26,73.8,57.2,43.7,49.0,44.5,39.3,99,69,31,30.44,30.28,2,0,10,0.00
2013-4-27,73.1,60.3,49.3,53.0,48.1,43.6,89,66,42,30.40,30.27,2,0,4,0.00
2013-4-28,61.6,57.6,53.7,57.5,51.3,44.8,97,80,64,30.28,30.12,0,0,1,0.48
2013-4-29,72.2,61.3,54.2,66.5,60.0,53.4,100,96,81,30.13,29.98,0,0,2,1.26
2013-4-30,65.7,60.6,55.5,61.1,58.7,54.2,99,94,81,30.18,30.01,1,0,3,0.01
2013-5-1,60.4,58.1,56.8,59.3,57.0,56.0,98,96,94,30.34,30.17,1,0,4,0.03
2013-5-2,62.5,58.3,52.3,58.3,56.2,50.3,97,93,85,30.35,30.27,1,0,4,0.00
2013-5-3,70.2,56.5,46.6,59.2,50.6,45.3,99,82,54,30.28,30.18,2,0,6,0.00
2013-5-4,63.3,54.9,48.6,55.4,50.1,46.0,93,84,72,30.24,30.10,2,0,4,0.00
2013-5-5,60.0,54.8,48.8,57.0,52.1,46.6,95,91,86,30.12,30.01,1,0,4,0.01
2013-5-6,67.1,60.1,55.4,66.8,59.3,54.6,100,97,90,30.03,29.84,2,0,4,1.01
2013-5-7,72.5,60.2,51.7,61.1,55.6,50.3,100,87,53,29.96,29.86,2,0,8,0.01
2013-5-8,72.3,60.1,50.1,63.5,56.6,49.0,99,89,63,30.02,29.93,2,0,4,0.12
2013-5-9,82.0,65.5,55.1,64.2,58.6,54.6,100,81,47,30.07,29.98,2,0,3,0.01
2013-5-10,85.4,70.1,53.4,65.7,60.7,52.6,100,75,47,30.07,29.94,2,0,6,0.00
2013-5-11,82.0,71.7,66.0,68.4,64.6,60.5,98,79,56,29.97,29.79,3,0,5,0.07
2013-5-12,73.1,65.0,51.9,65.5,53.5,40.1,99,70,36,30.03,29.78,3,1,6,0.01
2013-5-13,66.6,54.5,42.2,46.0,40.9,34.1,94,64,36,30.19,30.03,3,0,7,0.00
2013-5-14,70.8,54.2,37.4,49.2,41.6,35.8,97,67,35,30.27,30.09,2,0,5,0.00
2013-5-15,88.6,70.1,51.6,66.3,57.8,45.9,86,67,46,30.10,29.89,3,1,7,0.00
2013-5-16,85.1,72.9,59.5,65.1,62.5,57.9,98,72,47,29.98,29.89,3,0,6,0.00
2013-5-17,89.5,73.1,59.1,68.8,63.7,57.7,99,75,45,30.09,29.97,1,0,3,0.00
2013-5-18,77.6,69.1,62.3,71.9,66.2,60.6,98,91,77,30.17,30.08,1,0,3,0.60
2013-5-19,75.0,68.1,64.0,72.3,67.2,63.2,100,97,82,30.16,30.07,3,0,3,0.40
2013-5-20,74.0,69.5,66.3,73.0,69.0,66.0,100,98,91,30.13,30.04,1,0,2,0.26
2013-5-21,82.5,73.4,67.9,75.7,70.4,67.8,100,91,69,30.05,29.95,2,0,5,0.00
2013-5-22,84.3,73.9,68.4,72.8,69.5,67.5,98,87,62,30.03,29.91,2,0,5,0.01
2013-5-23,82.4,71.5,68.1,71.5,68.9,67.5,100,92,65,29.97,29.82,1,0,4,0.15
2013-5-24,69.3,63.6,48.1,68.0,55.2,41.2,100,77,43,30.19,29.80,4,1,11,0.01
2013-5-25,74.4,55.5,40.1,51.4,43.2,38.6,96,68,32,30.28,30.14,3,1,9,0.00
2013-5-26,75.3,58.2,43.4,55.5,47.8,41.8,97,73,37,30.29,30.18,2,0,4,0.00
2013-5-27,81.5,63.8,46.3,59.4,53.3,45.2,99,73,42,30.30,30.17,2,0,3,0.00
2013-5-28,83.7,71.2,57.7,70.2,63.2,55.1,96,77,60,30.26,30.14,2,0,8,0.00
2013-5-29,86.0,73.7,60.4,69.4,65.0,59.3,98,76,54,30.25,30.16,2,0,7,0.00
2013-5-30,88.7,74.4,61.1,70.0,65.9,60.0,99,77,47,30.27,30.17,2,0,4,0.00
2013-5-31,87.5,75.8,64.9,71.1,68.3,63.7,98,79,53,30.23,30.10,2,0,4,0.00
2013-6-1,88.7,77.2,66.5,71.7,68.6,65.4,98,77,52,30.15,30.02,2,0,5,0.00
2013-6-2,86.4,76.9,68.5,71.4,68.8,65.9,94,77,57,30.06,29.90,2,0,5,0.01
2013-6-3,83.4,73.9,67.4,74.4,71.4,66.5,100,92,69,29.96,29.83,1,0,3,0.19
2013-6-4,80.6,70.9,64.4,67.8,65.3,62.3,100,84,58,30.11,29.93,1,0,3,0.00
2013-6-5,84.5,70.8,59.0,65.9,62.2,58.2,99,77,48,30.16,30.03,1,0,6,0.00
2013-6-6,74.6,69.4,63.4,73.0,67.1,58.4,100,93,73,30.07,29.83,0,0,2,0.79
2013-6-7,76.3,70.6,68.4,76.3,70.6,68.4,100,100,99,29.86,29.45,3,0,7,3.10
2013-6-8,85.3,73.6,65.8,73.0,69.9,65.5,100,90,61,30.10,29.82,2,0,10,0.02
2013-6-9,87.0,75.3,64.6,76.7,70.9,64.1,100,87,66,30.17,30.06,1,0,1,0.08
2013-6-10,81.6,73.8,70.8,79.3,72.9,70.2,100,97,84,30.11,29.90,3,0,7,0.24
2013-6-11,85.1,75.9,68.0,71.6,69.2,66.2,98,81,57,29.95,29.88,3,1,8,0.00
2013-6-12,90.7,76.5,62.9,78.0,70.7,62.3,100,84,63,29.97,29.86,2,0,6,0.00
2013-6-13,94.1,78.2,67.9,77.8,72.5,66.3,100,85,53,29.87,29.58,7,1,13,0.03
2013-6-14,80.9,70.0,60.9,67.3,61.4,58.6,98,76,50,30.02,29.72,2,0,6,0.00
2013-6-15,85.6,70.2,55.6,69.8,62.1,54.8,100,78,49,30.12,30.01,2,0,5,0.00
2013-6-16,86.4,75.0,64.5,72.4,65.8,57.2,94,74,60,30.13,30.00,3,1,6,0.00
2013-6-17,86.1,77.1,71.7,75.9,70.7,66.6,92,81,67,30.04,29.92,2,0,6,0.02
2013-6-18,82.4,74.0,68.6,75.3,71.6,68.0,99,92,77,29.97,29.73,3,0,7,1.25
2013-6-19,79.5,71.3,64.0,71.1,67.8,63.7,100,89,71,30.13,29.87,1,0,3,0.00
2013-6-20,83.2,71.0,62.6,69.3,63.8,55.4,99,80,56,30.26,30.13,2,0,3,0.00
2013-6-21,84.4,69.3,54.1,69.3,61.0,52.8,99,77,51,30.27,30.19,1,0,4,0.00
2013-6-22,81.5,72.6,68.3,73.7,70.2,67.4,99,93,75,30.22,30.11,1,0,4,0.02
2013-6-23,82.9,74.4,67.1,78.7,72.3,66.8,100,94,74,30.22,30.13,1,0,2,0.48
2013-6-24,83.0,76.5,71.5,79.7,74.1,70.9,99,93,81,30.21,30.08,1,0,3,0.65
2013-6-25,85.8,76.1,70.4,79.4,72.9,69.5,98,90,76,30.13,30.00,2,0,5,0.01
2013-6-26,90.5,76.6,68.6,77.9,72.3,67.9,99,88,63,30.04,29.88,2,0,5,0.50
2013-6-27,89.0,76.9,67.6,78.7,73.0,67.5,100,89,67,29.93,29.71,2,0,5,0.01
2013-6-28,91.0,78.3,71.2,77.2,73.5,69.9,99,87,61,29.75,29.57,5,0,13,0.19
2013-6-29,85.6,75.1,68.4,77.3,72.8,68.4,100,93,71,29.73,29.60,1,0,3,1.34
2013-6-30,84.7,75.9,70.5,78.3,73.9,70.2,100,94,78,29.88,29.72,1,0,3,0.54
2013-7-1,81.9,74.4,70.1,77.5,73.2,69.8,100,96,85,30.00,29.84,1,0,4,1.70
2013-7-2,75.6,73.1,71.1,75.4,72.9,70.8,100,99,97,30.20,30.00,1,0,3,0.73
2013-7-3,84.2,76.1,72.3,79.5,75.2,72.3,100,97,82,30.25,30.16,0,0,3,1.06
2013-7-4,88.4,78.1,71.9,78.3,74.6,71.5,100,90,65,30.29,30.19,0,0,2,0.00
2013-7-5,89.5,79.4,71.1,79.7,74.9,70.5,100,87,63,30.28,30.16,0,0,2,0.00
2013-7-6,87.9,78.5,72.8,79.2,74.6,72.1,99,89,69,30.26,30.12,1,0,3,0.00
2013-7-7,88.2,77.9,69.1,78.4,73.8,68.3,100,88,70,30.20,30.06,2,0,5,0.00
2013-7-8,87.1,77.1,72.4,79.2,74.4,71.8,99,92,73,30.17,30.08,1,0,4,0.25
2013-7-9,87.3,76.4,70.7,79.9,74.8,70.7,100,95,77,30.16,30.08,1,0,4,0.01
2013-7-10,86.5,81.3,73.9,78.9,76.5,71.0,94,85,76,30.07,29.95,2,0,6,0.01
2013-7-11,81.8,75.5,72.9,76.1,73.9,71.4,100,95,82,29.99,29.89,1,0,4,0.55
2013-7-12,76.4,72.9,70.5,73.5,71.8,69.9,100,97,87,30.03,29.88,1,0,1,0.03
2013-7-13,79.5,73.5,69.9,78.6,73.0,69.6,100,98,91,30.20,30.02,0,0,3,0.95
2013-7-14,88.7,77.8,69.4,79.1,74.3,69.4,100,90,68,30.31,30.20,1,0,3,0.00
2013-7-15,90.8,77.4,67.8,79.0,73.3,67.5,100,89,59,30.33,30.25,1,0,3,0.00
2013-7-16,93.8,79.4,67.7,81.8,74.8,67.4,100,87,62,30.27,30.17,1,0,2,0.00
2013-7-17,93.6,82.0,73.0,80.3,76.3,72.4,100,85,58,30.22,30.10,1,0,3,0.00
2013-7-18,94.2,81.5,73.4,82.0,77.5,73.1,100,88,63,30.15,30.03,1,0,2,0.00
2013-7-19,90.0,81.1,74.1,79.8,76.3,73.8,100,86,68,30.09,29.97,2,0,6,0.00
2013-7-20,87.1,79.8,75.5,80.2,75.7,73.3,94,88,74,30.03,29.91,2,0,4,0.02
2013-7-21,88.1,77.5,72.9,79.1,74.6,71.8,100,91,71,30.00,29.90,1,0,3,1.75
2013-7-22,88.1,78.4,71.3,79.3,75.2,71.3,100,91,71,29.96,29.81,1,0,5,0.00
2013-7-23,89.4,80.3,74.6,79.7,74.9,72.9,96,85,64,29.85,29.71,3,0,7,0.00
2013-7-24,92.8,79.0,70.0,79.0,73.2,69.7,100,84,56,29.85,29.72,1,0,3,0.00
2013-7-25,82.5,73.7,67.0,73.3,70.1,65.8,98,89,70,30.04,29.82,2,0,4,0.02
2013-7-26,86.0,72.0,60.4,72.1,65.9,59.8,100,83,56,30.12,30.02,1,0,2,0.00
2013-7-27,85.9,73.2,65.0,75.8,69.9,64.3,100,90,64,30.07,29.94,2,0,4,0.11
2013-7-28,87.7,76.6,69.7,77.0,73.0,69.7,100,90,63,30.00,29.93,2,0,3,0.01
2013-7-29,88.2,76.7,69.4,75.0,71.1,66.3,99,84,59,30.16,29.99,1,0,3,0.02
2013-7-30,89.3,73.9,61.2,74.3,68.6,60.3,99,85,52,30.23,30.14,1,0,3,0.00
2013-7-31,82.0,74.3,70.6,76.5,72.4,69.8,99,94,79,30.15,30.01,0,0,0,0.07
2013-8-1,84.5,74.5,70.2,76.8,72.7,69.9,100,94,75,30.03,29.86,1,0,3,0.15
2013-8-2,89.3,76.8,66.3,77.5,71.2,65.7,100,85,60,30.02,29.90,1,0,3,0.00
2013-8-3,87.9,76.7,70.5,78.9,74.2,70.2,100,92,69,30.02,29.91,1,0,5,0.24
2013-8-4,85.6,73.8,65.0,73.0,69.0,63.5,100,86,56,30.04,29.88,1,0,4,0.01
2013-8-5,80.2,70.2,60.6,71.8,65.5,60.0,100,86,58,30.11,30.01,1,0,2,0.00
2013-8-6,83.5,73.5,67.0,73.1,69.1,65.1,99,87,69,30.07,30.00,1,0,5,0.14
2013-8-7,86.6,75.5,66.6,75.2,70.7,66.0,100,86,63,30.11,30.03,1,0,2,0.00
2013-8-8,88.5,77.8,69.4,77.5,73.3,68.8,100,87,65,30.07,29.99,1,0,2,0.00
2013-8-9,91.6,81.0,73.3,79.6,75.8,72.6,99,85,65,30.05,29.97,2,0,5,0.00
2013-8-10,91.9,80.5,74.2,81.4,76.5,73.3,100,88,68,30.10,29.99,4,0,8,0.11
2013-8-11,93.2,79.9,72.2,79.1,75.5,72.2,100,88,57,30.11,30.00,1,0,2,0.00
2013-8-12,94.3,81.4,71.8,78.7,74.9,71.5,100,83,55,30.05,29.93,1,0,3,0.00
2013-8-13,87.2,76.6,71.3,81.0,75.0,71.3,100,95,74,30.00,29.77,3,0,12,1.76
2013-8-14,75.9,70.3,60.1,73.7,67.3,59.1,100,91,69,30.10,29.82,1,0,4,0.00
2013-8-15,77.4,64.6,56.9,64.7,60.3,56.4,99,87,59,30.17,30.09,1,0,4,0.00
2013-8-16,71.3,64.4,57.0,65.4,61.5,56.4,100,91,75,30.19,30.11,0,0,3,0.00
2013-8-17,71.9,67.1,61.5,71.6,66.4,60.6,100,98,94,30.19,30.12,0,0,2,0.20
2013-8-18,80.8,72.7,67.4,73.7,70.1,66.5,100,92,75,30.21,30.12,2,0,4,0.03
2013-8-19,74.2,69.2,66.2,72.9,68.7,65.7,100,98,95,30.21,30.10,0,0,1,0.89
2013-8-20,83.1,73.4,66.3,76.6,71.7,66.3,100,95,80,30.20,30.11,0,0,3,0.00
2013-8-21,85.0,74.8,70.6,79.9,73.9,70.6,100,97,81,30.23,30.10,1,0,2,0.57
2013-8-22,90.5,77.1,68.6,78.7,73.1,68.6,100,89,60,30.15,29.99,1,0,2,0.00
2013-8-23,87.1,76.2,68.7,77.8,72.5,67.6,100,89,66,30.07,29.92,2,0,3,0.00
2013-8-24,83.6,71.8,63.7,68.2,64.9,62.4,98,81,53,30.32,30.07,1,0,4,0.00
2013-8-25,80.3,67.8,58.4,66.1,62.0,57.8,100,84,52,30.40,30.30,1,0,4,0.04
2013-8-26,84.4,66.7,52.4,70.2,60.5,51.9,100,83,48,30.34,30.12,1,0,4,0.00
2013-8-27,87.7,71.9,59.2,77.3,68.1,58.6,100,89,64,30.13,29.96,1,0,2,0.00
2013-8-28,81.0,74.2,67.0,77.7,73.1,66.7,100,97,83,29.99,29.86,0,0,1,0.02
2013-8-29,87.4,78.4,70.5,77.4,74.3,69.3,97,88,68,30.02,29.83,2,0,5,0.00
2013-8-30,88.0,74.0,65.8,73.1,69.1,65.5,100,87,54,30.07,29.94,1,0,3,0.00
2013-8-31,87.3,75.6,65.8,76.5,71.4,65.5,100,88,65,29.98,29.86,2,0,4,0.00
2013-9-1,89.0,75.6,71.1,80.2,73.8,70.8,100,95,70,29.90,29.78,3,0,8,4.13
2013-9-2,88.4,76.5,69.8,79.0,74.2,69.8,100,93,69,29.89,29.80,1,0,2,0.00
2013-9-3,87.3,76.0,70.6,79.6,73.9,70.5,100,94,74,29.94,29.80,2,0,3,0.16
2013-9-4,85.0,74.1,67.3,77.1,70.6,66.5,100,90,69,30.09,29.94,1,0,3,0.00
2013-9-5,87.6,73.1,63.4,71.5,66.8,62.3,100,84,45,30.10,30.03,2,0,6,0.00
2013-9-6,83.4,70.5,60.7,68.7,64.2,58.6,98,82,53,30.18,30.08,1,0,4,0.00
2013-9-7,83.6,68.2,56.9,72.3,63.4,56.3,100,86,58,30.15,29.99,1,0,2,0.00
2013-9-8,87.4,73.4,60.7,72.7,67.2,60.4,100,83,50,29.99,29.91,1,0,2,0.00
2013-9-9,86.3,73.8,63.6,75.6,69.7,63.3,100,88,64,30.16,30.00,1,0,3,0.00
2013-9-10,90.0,75.9,65.1,76.7,70.9,64.8,100,86,59,30.23,30.15,1,0,2,0.00
2013-9-11,87.5,74.6,65.0,77.3,70.3,64.7,100,88,62,30.21,30.08,1,0,3,0.00
2013-9-12,89.4,76.5,67.4,77.9,71.9,66.7,99,87,65,30.08,29.80,1,0,3,0.00
2013-9-13,84.5,73.7,62.6,70.5,66.8,60.2,98,81,55,29.89,29.75,2,0,3,0.00
2013-9-14,78.0,64.8,56.2,63.0,55.6,49.3,94,74,48,30.16,29.89,1,0,3,0.00
2013-9-15,80.6,63.6,49.9,66.9,57.9,49.1,100,84,55,30.25,30.13,1,0,3,0.00
2013-9-16,85.6,71.4,61.7,73.5,65.9,60.8,100,85,50,30.20,30.04,2,0,6,0.08
2013-9-17,75.9,64.9,55.5,62.2,57.2,52.0,96,78,49,30.33,30.20,1,0,6,0.00
2013-9-18,73.9,58.4,47.5,62.3,53.3,46.7,99,85,51,30.32,30.18,1,0,2,0.00
2013-9-19,75.2,63.1,52.5,65.9,58.7,51.7,100,87,60,30.21,30.10,1,0,1,0.00
2013-9-20,71.9,65.6,60.5,68.3,64.4,59.4,100,96,87,30.11,29.98,1,0,2,0.38
2013-9-21,75.5,69.7,65.3,72.4,68.8,65.0,100,97,88,29.99,29.73,1,0,1,0.36
2013-9-22,78.0,68.2,57.6,68.2,62.4,56.4,100,83,57,29.91,29.72,2,0,7,0.84
2013-9-23,72.6,60.5,52.6,61.7,55.4,51.3,98,85,60,30.09,29.91,0,0,0,0.00
2013-9-24,75.5,60.5,49.7,65.3,56.7,48.9,100,88,62,30.12,29.96,0,0,0,0.00
2013-9-25,72.9,60.9,49.9,66.4,58.5,49.4,100,92,68,29.98,29.88,0,0,0,0.00
2013-9-26,77.6,64.9,56.0,63.6,59.5,54.8,100,85,51,30.05,29.88,0,0,0,0.00
2013-9-27,73.2,60.7,52.5,63.0,57.1,51.9,100,89,65,30.20,30.05,0,0,0,0.00
2013-9-28,72.4,60.1,50.2,61.4,55.8,49.7,100,87,65,30.27,30.18,0,0,0,0.01
2013-9-29,75.3,60.2,50.3,62.3,55.7,49.8,100,87,56,30.19,30.04,0,0,0,0.00
2013-9-30,75.9,60.4,50.6,62.7,55.9,50.1,100,87,55,30.11,30.01,0,0,0,0.00
2013-10-1,82.8,63.3,49.2,69.4,58.7,48.7,100,87,54,30.14,30.03,0,0,0,0.00
2013-10-2,84.0,66.9,54.5,69.3,61.1,53.9,100,84,51,30.14,30.05,0,0,0,0.00
2013-10-3,83.1,67.9,55.5,70.7,63.2,54.9,100,87,59,30.14,30.06,1,0,4,0.00
2013-10-4,85.8,70.6,59.5,71.7,65.4,58.9,100,86,56,30.14,30.05,1,0,2,0.00
2013-10-5,87.5,71.2,59.0,73.0,65.9,58.4,100,86,53,30.12,30.03,0,0,0,0.00
2013-10-6,82.3,70.4,60.5,73.9,68.2,60.0,100,93,74,30.08,29.95,1,0,1,0.02
2013-10-7,75.0,70.4,63.9,74.1,69.8,62.7,100,98,93,30.00,29.86,1,0,4,0.40
2013-10-8,63.8,59.1,54.8,62.6,53.1,49.3,96,81,71,30.21,29.98,1,0,6,0.03
2013-10-9,61.6,57.7,54.6,57.8,54.5,51.9,98,89,83,30.20,30.08,2,0,5,0.17
2013-10-10,59.3,56.3,53.6,58.6,55.7,53.0,99,98,97,30.08,29.94,2,1,4,0.20
2013-10-11,64.4,61.0,58.6,62.8,60.1,58.3,99,97,93,29.98,29.91,1,0,3,0.03
2013-10-12,68.7,64.0,60.8,66.4,63.1,60.3,99,97,92,30.09,29.95,1,0,4,0.00
2013-10-13,66.7,63.8,61.9,65.8,63.2,61.6,100,98,95,30.21,30.08,1,0,4,0.13
2013-10-14,64.3,61.8,56.0,63.4,61.0,55.4,100,97,90,30.25,30.18,1,0,6,0.12
2013-10-15,69.5,60.6,52.2,63.9,58.7,51.9,100,94,81,30.21,30.07,1,0,3,0.01
2013-10-16,69.1,64.5,60.0,65.8,62.9,59.4,99,95,84,30.07,29.96,0,0,1,0.00
2013-10-17,74.4,66.0,57.9,67.2,63.3,57.6,100,91,75,29.98,29.85,2,0,3,0.00
2013-10-18,69.1,62.4,53.7,66.3,56.6,49.6,97,82,60,30.05,29.88,1,0,5,0.00
2013-10-19,69.1,62.9,59.0,66.4,61.7,57.9,98,96,91,29.99,29.82,1,0,1,0.01
2013-10-20,64.0,53.5,42.5,59.2,47.7,41.1,99,82,55,30.14,29.91,1,0,2,0.01
2013-10-21,65.2,49.4,36.0,54.4,45.2,35.2,100,87,54,30.19,30.03,1,0,2,0.00
2013-10-22,63.2,55.5,48.5,59.9,54.2,48.0,99,95,87,30.03,29.82,0,0,1,0.00
2013-10-23,65.0,57.2,47.2,59.0,50.0,38.1,100,80,45,30.00,29.69,3,1,7,0.00
2013-10-24,56.8,45.6,36.0,42.7,37.1,33.4,94,74,49,30.20,30.01,2,0,7,0.00
2013-10-25,55.3,44.0,32.8,39.7,34.9,31.3,94,73,43,30.39,30.20,2,0,4,0.00
2013-10-26,58.4,41.0,27.1,40.4,33.4,26.1,98,78,43,30.38,30.10,2,0,4,0.00
2013-10-27,66.9,50.4,39.1,49.6,42.8,37.6,98,78,46,30.15,30.07,1,0,4,0.00
2013-10-28,69.3,53.4,40.2,57.3,49.2,39.2,99,87,55,30.28,30.14,1,0,2,0.00
2013-10-29,71.1,57.0,47.0,61.2,53.7,46.4,100,90,64,30.34,30.26,1,0,2,0.00
2013-10-30,71.8,59.2,50.5,62.5,56.3,49.7,100,91,67,30.31,30.17,1,0,3,0.00
2013-10-31,73.3,63.4,54.6,64.1,58.7,54.0,100,86,63,30.21,29.95,2,0,6,0.00
2013-11-1,72.4,68.0,62.6,67.6,66.1,62.0,100,93,83,29.94,29.69,2,0,7,1.32
2013-11-2,69.1,60.9,54.2,62.3,53.9,42.3,99,80,45,29.94,29.69,3,0,6,0.00
2013-11-3,55.4,45.5,39.6,42.6,40.2,37.7,95,83,61,30.19,29.94,1,0,4,0.00
2013-11-4,55.3,41.5,33.4,37.8,35.3,32.1,95,80,48,30.58,30.40,1,0,7,0.01
2013-11-5,56.3,47.4,36.9,51.0,43.2,34.2,94,86,75,30.56,30.45,1,0,3,0.00
2013-11-6,71.0,55.3,43.5,59.5,51.8,43.0,99,89,65,30.45,30.14,1,0,4,0.00
2013-11-7,67.7,59.4,46.2,63.7,54.5,34.4,100,85,55,30.13,29.92,2,0,10,0.08
2013-11-8,56.6,43.9,32.4,35.5,32.7,29.8,94,67,39,30.35,30.11,2,0,6,0.00
2013-11-9,57.2,42.1,28.9,40.8,34.4,27.9,99,78,43,30.41,30.20,1,0,4,0.00
2013-11-10,71.0,51.1,35.9,44.4,38.6,31.4,97,67,33,30.25,30.07,4,1,7,0.00
2013-11-11,59.5,43.1,29.8,38.1,33.1,28.0,95,71,39,30.37,30.16,1,0,3,0.00
2013-11-12,59.0,40.2,31.4,42.7,33.3,20.6,99,79,47,30.45,30.07,2,0,9,0.02
2013-11-13,45.2,33.5,24.5,24.1,21.0,17.6,90,62,38,30.55,30.44,2,0,7,0.00
2013-11-14,57.7,34.6,20.6,30.8,25.2,19.1,97,74,32,30.50,30.36,2,0,5,0.00
2013-11-15,62.2,44.0,25.4,49.0,37.2,23.9,98,80,48,30.39,30.23,1,0,2,0.00
2013-11-16,65.9,54.9,48.2,59.9,52.9,46.6,99,93,81,30.29,30.23,1,0,3,0.00
2013-11-17,70.9,60.6,50.9,65.8,58.5,50.6,100,93,75,30.24,29.92,1,0,3,0.05
2013-11-18,74.4,67.5,59.8,67.9,59.0,40.6,100,77,48,29.91,29.80,3,1,8,0.01
2013-11-19,56.1,47.6,37.1,34.0,32.4,30.5,84,57,41,30.35,30.14,2,0,6,0.00
2013-11-20,52.5,43.3,36.2,39.8,34.3,29.2,88,71,56,30.48,30.34,1,0,6,0.00
2013-11-21,60.2,48.8,40.5,51.4,44.2,37.8,94,85,70,30.53,30.41,1,0,3,0.00
2013-11-22,70.4,58.0,45.5,61.8,54.6,44.4,99,89,73,30.42,30.09,3,0,5,0.02
2013-11-23,61.8,55.0,41.7,60.9,45.5,25.1,99,73,45,30.18,30.03,2,0,6,0.03
2013-11-24,41.4,32.1,22.4,26.0,13.9,7.6,73,48,31,30.58,30.18,3,1,9,0.00
2013-11-25,42.8,28.9,16.7,23.7,16.1,12.4,91,62,31,30.63,30.41,1,0,4,0.00
2013-11-26,65.4,45.1,33.4,65.4,38.9,20.9,100,80,55,30.43,29.58,1,0,4,0.89
2013-11-27,63.2,40.6,29.5,63.2,38.4,21.0,100,92,69,30.18,29.50,3,1,9,1.21
2013-11-28,44.5,30.7,20.9,28.6,22.7,18.5,94,74,45,30.52,30.18,1,0,5,0.01
2013-11-29,49.6,33.0,21.3,31.8,25.7,20.1,98,78,46,30.68,30.50,2,0,4,0.00
2013-11-30,49.1,34.0,24.5,36.5,28.9,22.4,94,82,60,30.67,30.40,1,0,3,0.00
2013-12-1,59.0,39.2,25.7,40.1,32.6,24.7,98,80,40,30.40,30.05,2,0,8,0.00
2013-12-2,59.7,42.8,33.9,46.4,37.7,32.2,97,84,50,30.05,29.85,1,0,3,0.00
2013-12-3,57.7,43.4,29.8,48.0,39.7,28.8,99,88,66,30.03,29.90,1,0,2,0.00
2013-12-4,63.9,55.4,49.7,59.6,53.5,47.8,98,93,84,30.11,30.01,0,0,2,0.00
2013-12-5,65.9,60.1,51.7,64.8,59.7,51.2,100,99,96,30.16,30.05,1,0,3,0.07
2013-12-6,77.8,69.8,64.1,66.8,64.8,62.6,98,85,67,30.09,29.98,4,1,10,0.00
2013-12-7,68.8,48.1,41.1,66.1,44.3,33.1,96,87,73,30.48,30.00,2,0,6,0.16
2013-12-8,41.1,35.2,32.8,33.7,32.3,29.5,98,90,71,30.49,30.32,1,0,5,0.11
2013-12-9,45.0,39.5,34.2,45.0,39.2,33.7,100,99,98,30.31,30.09,0,0,2,0.19
2013-12-10,46.3,42.0,28.2,46.3,40.9,26.4,100,96,78,30.35,29.93,2,0,5,0.67
2013-12-11,49.2,33.0,22.2,31.1,26.6,21.2,98,81,43,30.49,30.32,2,0,3,0.00
2013-12-12,43.6,32.5,23.0,27.4,23.3,16.1,96,72,33,30.44,30.30,3,0,7,0.00
2013-12-13,50.5,32.3,19.7,30.4,23.8,18.3,96,75,36,30.42,30.30,2,0,7,0.00
2013-12-14,46.8,39.6,33.7,41.7,36.7,30.5,98,90,62,30.34,29.80,2,0,7,1.01
2013-12-15,53.1,42.4,30.8,45.1,37.2,27.7,99,83,54,30.09,29.72,4,1,7,0.03
2013-12-16,54.6,37.0,26.2,37.6,31.5,25.0,98,83,50,30.21,30.08,2,0,3,0.00
2013-12-17,61.4,43.8,28.5,42.3,36.3,27.5,99,78,45,30.15,29.90,5,0,7,0.00
2013-12-18,48.5,36.9,26.4,38.3,26.8,23.1,93,70,38,30.32,30.05,3,0,9,0.00
2013-12-19,62.6,40.9,23.7,33.1,28.3,22.2,97,67,31,30.36,30.24,4,0,7,0.00
2013-12-20,67.0,51.7,36.2,56.5,45.0,32.2,97,78,63,30.27,30.13,3,0,7,0.00
2013-12-21,72.8,59.9,47.5,66.9,56.5,46.3,99,89,70,30.18,30.06,3,1,7,0.00
2013-12-22,77.7,70.4,62.5,69.0,66.0,61.9,99,87,68,30.13,30.03,4,1,15,0.25
2013-12-23,66.2,60.0,46.2,65.9,59.5,44.6,100,98,94,30.16,30.00,3,0,6,1.71
2013-12-24,46.1,40.0,28.4,44.2,31.8,17.0,96,73,54,30.48,30.14,3,1,6,0.01
2013-12-25,39.4,28.1,20.9,20.7,17.7,14.5,91,67,41,30.59,30.44,1,0,2,0.01
2013-12-26,51.3,34.1,21.8,33.6,28.6,19.8,95,82,45,30.43,30.27,2,0,4,0.02
2013-12-27,51.8,34.0,23.6,30.5,26.0,22.1,96,76,38,30.49,30.39,1,0,3,0.00
2013-12-28,59.3,38.5,22.7,39.4,30.3,21.5,98,76,35,30.44,30.19,2,0,3,0.00
2013-12-29,63.5,49.0,39.2,63.5,47.6,38.4,100,95,75,30.20,29.69,6,0,9,1.95
2013-12-30,52.8,42.6,32.2,47.0,39.5,31.7,100,89,71,30.16,29.95,2,0,3,0.00
2013-12-31,50.2,40.0,28.7,38.2,32.5,26.5,96,77,40,30.38,30.14,4,0,6,0.01
2014-1-1,51.0,36.4,27.5,34.6,29.6,26.3,97,80,42,30.45,30.18,1,0,2,0.00
2014-1-2,47.6,41.8,35.5,45.5,39.3,33.5,98,91,76,30.18,29.58,2,0,5,0.36